Weather History for KSPA - February, 2013

Change the Weather History Date:

Monday, February 4, 2013

  Actual Average (KGSP) Record (KGSP)
Temperature  
Mean Temperature 41 °F 44 °F  
Max Temperature 50 °F 55 °F 76 °F (1957)
Min Temperature 32 °F 33 °F 7 °F (1917)
Degree Days  
Heating Degree Days 24 21  
Month to date heating degree days 85  
Since 1 July heating degree days 1995  
Cooling Degree Days 0 0  
Month to date cooling degree days 0  
Year to date cooling degree days 0  
Moisture  
Dew Point 26 °F    
Average Humidity 54    
Maximum Humidity 80    
Minimum Humidity 35    
Precipitation  
Precipitation 0.00 in 0.14 in 1.84 in (1936)
Month to date precipitation 0.54  
Year to date precipitation 4.36  
Snow  
Snow 0.00 in 0.10 in 5.40 in (1929)
Month to date snowfall 0.2  
Since 1 July snowfall 3.0  
Snow Depth -    
Sea Level Pressure  
Sea Level Pressure 30.05 in    
Wind  
Wind Speed 5 mph (SW)    
Max Wind Speed 12 mph    
Max Gust Speed 17 mph    
Visibility 10 miles    
Events      
T = Trace of Precipitation, MM = Missing Value Source: NWS Daily Summary

Daily Weather History Graph

Daily Weather History Graph

Search for Another Location

Airport or City:

Trip Planner

Search our weather history database for the weather conditions in past years. The results will help you decide how hot, cold, wet, or windy it might be!

Date:

Astronomy

Feb. 04, 2013 Rise Set
Actual Time 7:23 AM EST 6:00 PM EST
Civil Twilight 6:57 AM EST 6:26 PM EST
Nautical Twilight 6:27 AM EST 6:56 PM EST
Astronomical Twilight 5:57 AM EST 7:26 PM EST
Moon 1:55 AM EST (2/4) 12:26 PM EST (2/4)
Length of Visible Light 11h 28m
Length of Day
10h 36m
Last Quarter, 37% of the Moon is Illuminated
Feb 4
Last Quarter
Feb 10
New
Feb 17
First Quarter
Feb 25
Full
Mar 4
Last Quarter

Hourly Weather History & Observations

Time (EST) Temp. Windchill Dew Point Humidity Pressure Visibility Wind Dir Wind Speed Gust Speed Precip Events Conditions
12:15 AM 39.2 °F 34.2 °F 26.6 °F 61% 30.03 in 10.0 mi NW 6.9 mph - N/A   Clear
12:35 AM 39.2 °F 33.6 °F 24.8 °F 56% 30.02 in 10.0 mi NW 8.1 mph - N/A   Clear
1:15 AM 37.4 °F 29.8 °F 24.8 °F 60% 30.02 in 10.0 mi NW 11.5 mph 17.3 mph N/A   Clear
1:35 AM 37.4 °F 30.3 °F 23.0 °F 56% 30.02 in 10.0 mi NW 10.4 mph - N/A   Clear
1:55 AM 37.4 °F 30.3 °F 23.0 °F 56% 30.02 in 10.0 mi NW 10.4 mph - N/A   Clear
2:15 AM 35.6 °F 28.6 °F 23.0 °F 60% 30.02 in 10.0 mi NW 9.2 mph - N/A   Clear
2:35 AM 37.4 °F 32.1 °F 23.0 °F 56% 30.02 in 10.0 mi WNW 6.9 mph - N/A   Clear
2:55 AM 37.4 °F 30.8 °F 21.2 °F 52% 30.03 in 10.0 mi NW 9.2 mph 17.3 mph N/A   Clear
3:15 AM 37.4 °F 31.4 °F 21.2 °F 52% 30.03 in 10.0 mi NW 8.1 mph - N/A   Clear
3:35 AM 35.6 °F 29.2 °F 21.2 °F 56% 30.03 in 10.0 mi NW 8.1 mph - N/A   Clear
3:55 AM 35.6 °F 30.7 °F 21.2 °F 56% 30.04 in 10.0 mi NW 5.8 mph - N/A   Clear
4:15 AM 35.6 °F 29.9 °F 21.2 °F 56% 30.04 in 10.0 mi NW 6.9 mph - N/A   Clear
4:35 AM 35.6 °F 30.7 °F 21.2 °F 56% 30.05 in 10.0 mi NW 5.8 mph - N/A   Clear
6:15 AM 32.0 °F - 23.0 °F 69% 30.05 in 10.0 mi Calm Calm - N/A   Clear
6:35 AM 32.0 °F - 24.8 °F 75% 30.05 in 10.0 mi Calm Calm - N/A   Clear
6:55 AM 32.0 °F - 23.0 °F 69% 30.06 in 10.0 mi Calm Calm - N/A   Clear
7:35 AM 32.0 °F - 26.6 °F 80% 30.07 in 10.0 mi Calm Calm - N/A   Clear
7:55 AM 32.0 °F - 26.6 °F 80% 30.09 in 10.0 mi Calm Calm - N/A   Clear
8:15 AM 32.0 °F - 26.6 °F 80% 30.11 in 10.0 mi Calm Calm - N/A   Clear
8:35 AM 33.8 °F - 26.6 °F 75% 30.10 in 10.0 mi Calm Calm - N/A   Clear
8:55 AM 33.8 °F - 26.6 °F 75% 30.11 in 10.0 mi Calm Calm - N/A   Clear
9:15 AM 35.6 °F - 26.6 °F 70% 30.12 in 10.0 mi Calm Calm - N/A   Clear
9:35 AM 37.4 °F - 26.6 °F 65% 30.12 in 10.0 mi Calm Calm - N/A   Clear
9:55 AM 39.2 °F 37.0 °F 26.6 °F 61% 30.12 in 10.0 mi ESE 3.5 mph - N/A   Clear
10:15 AM 41.0 °F - 24.8 °F 53% 30.13 in 10.0 mi Calm Calm - N/A   Clear
10:35 AM 41.0 °F 37.1 °F 24.8 °F 53% 30.10 in 10.0 mi ESE 5.8 mph - N/A   Clear
10:55 AM 42.8 °F 41.1 °F 26.6 °F 53% 30.12 in 10.0 mi West 3.5 mph - N/A   Clear
11:15 AM 42.8 °F 40.1 °F 23.0 °F 46% 30.13 in 10.0 mi SW 4.6 mph - N/A   Clear
11:35 AM 42.8 °F 41.1 °F 26.6 °F 53% 30.13 in 10.0 mi West 3.5 mph - N/A   Clear
11:55 AM 44.6 °F - 26.6 °F 49% 30.12 in 10.0 mi Calm Calm - N/A   Clear
12:15 PM 44.6 °F - 24.8 °F 46% 30.10 in 10.0 mi Calm Calm - N/A   Clear
12:35 PM 44.6 °F - 24.8 °F 46% 30.09 in 10.0 mi Calm Calm - N/A   Clear
12:55 PM 50.0 °F - 26.6 °F 40% 30.08 in 10.0 mi South 3.5 mph - N/A   Clear
1:35 PM 50.0 °F - 26.6 °F 40% 30.06 in 10.0 mi South 3.5 mph - N/A   Clear
1:55 PM 50.0 °F - 26.6 °F 40% 30.05 in 10.0 mi SSW 5.8 mph - N/A   Clear
2:15 PM 50.0 °F - 24.8 °F 37% 30.05 in 10.0 mi SSW 4.6 mph - N/A   Clear
2:35 PM 50.0 °F - 24.8 °F 37% 30.05 in 10.0 mi SW 5.8 mph - N/A   Clear
2:55 PM 50.0 °F - 26.6 °F 40% 30.04 in 10.0 mi SSW 5.8 mph - N/A   Clear
3:15 PM 50.0 °F - 26.6 °F 40% 30.03 in 10.0 mi SSW 4.6 mph - N/A   Clear
3:35 PM 50.0 °F - 24.8 °F 37% 30.03 in 10.0 mi SW 3.5 mph - N/A   Scattered Clouds
3:55 PM 50.0 °F - 24.8 °F 37% 30.03 in 10.0 mi South 4.6 mph - N/A   Scattered Clouds
4:15 PM 50.0 °F - 24.8 °F 37% 30.02 in 10.0 mi SSW 4.6 mph - N/A   Scattered Clouds
4:35 PM 50.0 °F - 23.0 °F 35% 30.02 in 10.0 mi SSW 4.6 mph - N/A   Scattered Clouds
4:55 PM 50.0 °F - 24.8 °F 37% 30.02 in 10.0 mi SW 5.8 mph - N/A   Clear
5:15 PM 48.2 °F - 24.8 °F 40% 30.03 in 10.0 mi SW 5.8 mph - N/A   Clear
5:35 PM 48.2 °F - 24.8 °F 40% 30.02 in 10.0 mi South 4.6 mph - N/A   Clear
5:55 PM 46.4 °F 43.5 °F 26.6 °F 46% 30.03 in 10.0 mi South 5.8 mph - N/A   Clear
6:15 PM 46.4 °F 45.2 °F 26.6 °F 46% 30.03 in 10.0 mi South 3.5 mph - N/A   Clear
6:35 PM 44.6 °F 43.1 °F 26.6 °F 49% 30.02 in 10.0 mi South 3.5 mph - N/A   Clear
6:55 PM 44.6 °F - 26.6 °F 49% 30.02 in 10.0 mi Calm Calm - N/A   Clear
7:15 PM 44.6 °F 43.1 °F 26.6 °F 49% 30.02 in 10.0 mi South 3.5 mph - N/A   Clear
7:35 PM 44.6 °F 43.1 °F 26.6 °F 49% 30.02 in 10.0 mi SSW 3.5 mph - N/A   Clear
7:55 PM 42.8 °F 40.1 °F 28.4 °F 57% 30.02 in 10.0 mi SSW 4.6 mph - N/A   Clear
8:15 PM 42.8 °F 41.1 °F 28.4 °F 57% 30.02 in 10.0 mi SSW 3.5 mph - N/A   Clear
8:35 PM 42.8 °F 40.1 °F 28.4 °F 57% 30.02 in 10.0 mi SSW 4.6 mph - N/A   Clear
8:55 PM 42.8 °F 40.1 °F 28.4 °F 57% 30.02 in 10.0 mi SW 4.6 mph - N/A   Clear
9:15 PM 42.8 °F 39.3 °F 28.4 °F 57% 30.02 in 10.0 mi SW 5.8 mph - N/A   Clear
9:35 PM 42.8 °F 38.6 °F 30.2 °F 61% 30.03 in 10.0 mi WSW 6.9 mph - N/A   Clear
9:55 PM 42.8 °F 38.6 °F 30.2 °F 61% 30.03 in 10.0 mi SW 6.9 mph - N/A   Clear
10:15 PM 42.8 °F 37.5 °F 30.2 °F 61% 30.03 in 10.0 mi WSW 9.2 mph - N/A   Mostly Cloudy
10:55 PM 42.8 °F 38.0 °F 30.2 °F 61% 30.02 in 10.0 mi SW 8.1 mph - N/A   Mostly Cloudy
11:15 PM 42.8 °F 39.3 °F 30.2 °F 61% 30.02 in 10.0 mi WSW 5.8 mph - N/A   Mostly Cloudy
11:35 PM 42.8 °F 38.6 °F 30.2 °F 61% 30.01 in 10.0 mi WSW 6.9 mph - N/A   Mostly Cloudy
11:55 PM 42.8 °F 38.6 °F 30.2 °F 61% 30.00 in 10.0 mi SW 6.9 mph - N/A   Clear